{"data":{"norad_id":53530,"epoch":"2026-05-25T02:17:31.022880Z","epoch_age_seconds":60029,"freshness":"FRESH","line1":"1 53530U 22101D   26145.09549795 -.00000916  00000+0 -39458-4 0  9998","line2":"2 53530  53.2141  91.3395 0001628 110.0702 250.0466 15.08841881207693","mean_motion":15.08841881,"eccentricity":0.0001628,"inclination_deg":53.2141,"raan_deg":91.3395,"arg_perigee_deg":110.0702,"mean_anomaly_deg":250.0466,"bstar":-3.9458e-5,"rev_number":20769,"period_min":95.437435700395,"perigee_km":538.61140951427,"apogee_km":540.86386949689,"semimajor_km":6917.8746395056,"source":"CELESTRAK","updated_at":"2026-05-25T13:38:17.439721Z"}}